GW1307 Weather Reports


time (UTC)temp
F
wind
direction
speed
knots
gust
knots
rain 1hr
in
rain 24hr
in
rain mn
in
humidity
%
barometer
mb
20260503231556 59 203 7.0 10.4 0.00 0.00 0.00 75 1013.8
20260503231507 66 157 2.6 8.7 0.00 0.00 0.00 50 1011.1
20260503230113 60 200 7.0 10.4 0.00 0.00 0.00 72 1013.9
20260503230006 66 196 4.3 10.4 0.00 0.00 0.00 50 1011.1
20260503224602 61 173 5.2 9.6 0.00 0.00 0.00 72 1014.0
20260503224504 67 134 1.7 7.0 0.00 0.00 0.00 52 1011.2
20260503223112 61 192 6.1 9.6 0.00 0.00 0.00 72 1014.1
20260503223002 66 229 1.7 5.2 0.00 0.00 0.00 54 1011.3
20260503221555 59 187 7.8 11.3 0.00 0.00 0.00 73 1014.2
20260503221501 65 139 0.9 3.5 0.00 0.00 0.00 55 1011.3
20260503220100 65 207 0.9 5.2 0.00 0.00 0.00 54 1011.3
20260503220058 59 196 7.8 10.4 0.00 0.00 0.00 73 1014.2
20260503214601 65 169 0.0 4.3 0.00 0.00 0.00 55 1011.4
20260503214559 59 196 7.8 10.4 0.00 0.00 0.00 73 1014.1
20260503213057 65 169 0.0 2.6 0.00 0.00 0.00 55 1011.3
20260503211556 60 178 7.0 10.4 0.00 0.00 0.00 73 1013.9
20260503211554 64 209 0.0 2.6 0.00 0.00 0.00 56 1011.3
20260503210055 59 173 7.0 9.6 0.00 0.00 0.00 71 1014.0
20260503210052 64 201 0.0 4.3 0.00 0.00 0.00 57 1011.4
20260503204555 59 194 7.0 9.6 0.00 0.00 0.00 73 1014.0
20260503204552 63 172 1.7 7.8 0.00 0.00 0.00 58 1011.6
20260503203105 64 192 0.9 3.5 0.00 0.00 0.00 57 1011.5
20260503203059 60 207 7.0 11.3 0.00 0.00 0.00 76 1014.2
20260503201558 60 182 6.1 11.3 0.00 0.00 0.00 77 1014.3
20260503201550 64 176 0.0 3.5 0.00 0.00 0.00 58 1011.8
20260503200056 60 334 5.2 8.7 0.00 0.00 0.00 79 1014.4
20260503200049 63 169 0.9 4.3 0.00 0.00 0.00 59 1011.7
20260503194616 59 163 6.1 12.2 0.00 0.00 0.00 80 1014.5
20260503194546 63 228 0.9 3.5 0.00 0.00 0.00 59 1011.7
20260503193056 59 158 5.2 10.4 0.00 0.00 0.00 81 1014.4
20260503193046 62 172 0.0 3.5 0.00 0.00 0.00 61 1011.8
20260503191601 58 158 6.1 13.0 0.00 0.00 0.00 79 1014.5
20260503191548 63 202 1.7 4.3 0.00 0.00 0.00 61 1012.0
20260503190058 59 161 7.0 13.0 0.00 0.00 0.00 78 1014.4
20260503190052 63 323 0.0 1.7 0.00 0.00 0.00 60 1012.0
20260503184557 59 121 5.2 11.3 0.00 0.00 0.00 77 1014.3
20260503184541 62 137 0.9 2.6 0.00 0.00 0.00 62 1012.0
20260503183058 60 219 5.2 10.4 0.00 0.00 0.00 78 1014.2
20260503183039 61 215 0.0 4.3 0.00 0.00 0.00 64 1012.1
20260503181606 59 178 5.2 8.7 0.00 0.00 0.00 78 1014.1
20260503181536 61 204 0.9 3.5 0.00 0.00 0.00 65 1012.2
20260503180058 58 185 4.3 7.0 0.00 0.00 0.00 79 1014.2
20260503180036 60 250 1.7 7.8 0.00 0.00 0.00 66 1012.2
20260503174606 58 198 5.2 7.8 0.00 0.00 0.00 77 1014.2
20260503174534 61 63 0.9 3.5 0.00 0.00 0.00 68 1012.2
20260503173101 59 203 5.2 12.2 0.00 0.00 0.00 76 1014.1
20260503173029 60 292 0.9 3.5 0.00 0.00 0.00 67 1012.0
20260503171556 59 138 5.2 7.8 0.00 0.00 0.00 78 1014.1
20260503171527 60 312 1.7 4.3 0.00 0.00 0.00 69 1012.1
20260503170105 57 184 4.3 7.8 0.00 0.00 0.00 78 1014.0
20260503120105 54 200 0.9 2.6 0.00 0.00 0.00 88 1011.7
20260503100104 57 41 0.0 1.7 0.00 0.00 0.00 75 1010.0
20260503081554 55 282 0.9 2.6 0.00 0.00 0.00 83 1012.3
20260503081550 57 34 0.0 0.9 0.00 0.00 0.00 75 1010.7
20260503071557 55 19 3.5 7.8 0.00 0.00 0.00 83 1012.4
20260503071536 57 311 0.0 1.7 0.00 0.00 0.00 75 1011.0
20260503054552 54 25 5.2 11.3 0.00 0.00 0.00 84 1012.4
20260503054550 58 48 0.0 2.6 0.00 0.00 0.00 74 1011.1
20260503053055 54 26 4.3 9.6 0.00 0.00 0.00 84 1012.7
20260503053037 58 28 0.9 1.7 0.00 0.00 0.00 74 1011.2
20260503051555 54 38 7.0 13.0 0.00 0.00 0.00 85 1012.5
20260503051528 58 54 0.0 4.3 0.00 0.00 0.00 73 1011.3
20260503050055 54 17 7.8 12.2 0.00 0.00 0.00 85 1012.7
20260503050028 58 40 0.0 1.7 0.00 0.00 0.00 73 1011.4
20260503044612 54 28 7.8 13.0 0.00 0.00 0.00 86 1012.5
20260503044528 58 24 0.0 2.6 0.00 0.00 0.00 73 1011.3
20260503043100 54 11 7.8 13.9 0.00 0.00 0.00 86 1012.4
20260503043027 58 336 0.0 1.7 0.00 0.00 0.00 73 1011.1
20260503041612 54 13 7.0 11.3 0.00 0.00 0.00 86 1012.2
20260503041527 58 37 0.0 3.5 0.00 0.00 0.00 73 1011.0
20260503040058 54 347 6.1 11.3 0.00 0.00 0.00 85 1011.9
20260503040034 59 15 0.0 2.6 0.00 0.00 0.00 73 1010.8
20260503034603 54 13 6.1 10.4 0.00 0.00 0.00 85 1012.0
20260503034526 59 38 0.9 3.5 0.00 0.00 0.00 72 1010.8
20260503033116 54 32 6.1 11.3 0.00 0.00 0.00 84 1011.8
20260503033029 59 31 0.9 2.6 0.00 0.00 0.00 72 1010.6
20260503031558 55 350 6.1 10.4 0.00 0.00 0.00 84 1011.7
20260503031524 60 44 0.9 2.6 0.00 0.00 0.00 71 1010.6
20260503030105 55 30 4.3 8.7 0.00 0.00 0.00 84 1011.6
20260503030026 60 19 0.9 2.6 0.00 0.00 0.00 71 1010.2
20260503024603 56 40 3.5 6.1 0.00 0.00 0.00 83 1011.5
20260503024522 60 92 0.0 1.7 0.00 0.00 0.00 71 1010.3
20260503023057 56 49 2.6 7.0 0.00 0.00 0.00 82 1011.4
20260503023021 61 35 1.7 7.0 0.00 0.00 0.00 70 1010.0
20260503021609 57 67 1.7 7.0 0.00 0.00 0.00 82 1011.5
20260503021521 61 38 0.9 3.5 0.00 0.00 0.00 69 1009.8
20260503020109 57 38 0.9 7.0 0.00 0.00 0.00 83 1011.5
20260503020021 62 46 1.7 3.5 0.00 0.00 0.00 68 1009.9
20260503014558 57 178 5.2 9.6 0.00 0.00 0.00 83 1011.6
20260503014521 63 34 0.9 5.2 0.00 0.00 0.00 67 1010.0
20260503013058 57 165 7.0 14.8 0.00 0.00 0.00 83 1011.7
20260503013022 64 44 0.0 3.5 0.00 0.00 0.00 65 1009.9
20260503011607 57 186 7.0 13.9 0.00 0.00 0.00 83 1011.7
20260503011523 64 41 0.0 3.5 0.00 0.00 0.00 66 1009.9
20260503010103 57 189 8.7 14.8 0.00 0.00 0.00 82 1011.7
20260503010025 65 59 0.0 2.6 0.00 0.00 0.00 64 1009.9
20260503004600 57 209 10.4 17.4 0.00 0.00 0.00 81 1011.8
20260503004519 66 38 0.9 4.3 0.00 0.00 0.00 63 1009.9
20260503003102 57 183 12.2 18.2 0.00 0.00 0.00 80 1011.8
20260503003020 68 44 1.7 5.2 0.00 0.00 0.00 61 1009.9
20260503001603 57 183 11.3 16.5 0.00 0.00 0.00 79 1012.0
20260503001517 68 57 0.9 5.2 0.00 0.00 0.00 60 1009.9
20260503000057 58 203 11.3 18.2 0.00 0.00 0.00 80 1012.0
20260503000016 69 67 1.7 4.3 0.00 0.00 0.00 59 1009.9
20260502234556 58 201 11.3 20.0 0.00 0.00 0.00 80 1012.1
20260502234524 70 39 0.9 3.5 0.00 0.00 0.00 58 1009.9
20260502233115 71 40 0.9 3.5 0.00 0.00 0.00 57 1009.9
20260502233056 57 187 12.2 16.5 0.00 0.00 0.00 81 1012.2